Temp_Advection
nan nan nan nan nan nan nan nan nan nan nan nan nan nan nan nan nan nan nan nan nan nan nan nan nan nan nan nan nan nan nan nan nan nan nan nan nan nan nan nan nan nan nan nan nan nan nan nan nan nan nan nan nan nan nan nan nan nan nan nan nan nan nan nan nan nan nan nan nan nan nan nan nan nan
nan 1 0 0 0 0 0 0 1 1 0 0 0 0 1 0 -0 -0 -1 -1 -1 -0 -1 -0 0 0 -0 -0 -0 0 1 0 0 0 0 -0 -0 0 0 0 0 0 0 0 0 0 0 -0 -0 0 0 0 0 0 0 0 0 0 0 0 0 0 0 -0 -0 0 -0 -0 -0 -0 -0 -0 -0 nan
nan 1 0 0 0 0 0 0 1 0 0 0 0 0 1 1 -0 -0 -0 0 0 -0 -0 0 0 0 0 -0 0 0 0 0 0 0 0 -0 -0 0 0 0 0 0 0 0 0 0 -0 -0 -0 -0 0 0 0 0 -0 -0 -0 -0 -0 -0 -0 -0 -0 -0 -0 -0 -0 -0 -0 -0 -0 -0 -0 nan
nan 1 0 1 1 0 0 0 0 -0 0 0 0 0 0 0 -0 -0 0 0 0 0 0 1 0 0 0 0 0 0 0 0 0 0 0 0 -0 0 0 0 0 0 0 0 0 -0 -0 -0 -0 -0 -0 -0 -0 -0 -0 -0 -0 -0 -0 -0 -0 -0 -0 -0 -0 -0 -0 -0 -0 -0 -0 -0 -0 nan
nan 1 1 1 1 0 0 0 1 0 0 0 0 0 0 0 -0 -0 0 0 0 0 1 1 0 0 0 0 0 0 0 0 0 0 0 0 -0 0 0 0 0 0 0 0 0 -0 -0 -0 -0 -0 -0 -0 -0 -0 -0 -0 -0 -0 -0 -0 -0 -1 -0 -0 -0 -0 -0 -0 -0 -0 -0 -0 -0 nan
nan 1 1 1 1 1 0 0 1 1 0 0 -0 0 0 0 -0 -0 0 0 0 0 0 0 0 0 0 0 0 0 0 0 0 0 0 0 0 0 0 0 0 0 0 0 0 -0 -0 -0 0 -0 0 0 -0 -0 -0 -0 -0 -0 -0 -0 -0 -1 -1 -1 -1 -0 -0 -0 -0 -0 -0 -1 -0 nan
nan -0 1 1 1 1 0 0 1 0 -0 -0 0 0 0 0 -0 -0 0 0 0 0 0 0 0 0 0 -0 0 0 0 0 0 0 0 0 0 0 0 0 0 0 0 0 0 -0 -0 -0 -0 0 0 0 -0 -0 -0 -0 -0 -0 -0 -0 -0 -0 -0 -0 -0 -0 -0 -0 -0 -0 -1 -0 -0 nan
nan -0 0 0 1 1 0 0 0 0 -0 -0 -0 -0 -0 -0 -0 0 0 0 0 0 0 0 0 0 0 0 0 0 0 0 0 0 0 0 0 0 0 0 0 0 0 0 0 0 -0 -0 0 0 0 0 -0 -0 -0 -0 -0 -0 -0 -0 -0 -0 -0 -0 -0 -0 -0 -0 -0 -0 -0 -0 -0 nan
nan 0 -0 0 1 1 0 -0 0 0 0 0 -0 -1 -1 -1 -0 0 0 0 0 0 0 0 0 0 0 0 0 0 0 0 0 0 0 0 0 0 0 0 0 0 0 0 0 -0 -0 -0 0 0 0 0 0 0 -0 -0 -0 0 -0 -0 -0 -0 -0 -0 -0 -0 -0 -0 -0 -0 -0 -0 -0 nan
nan 0 -0 0 0 0 -0 -0 0 0 -0 -1 -1 -1 -1 -1 -0 -0 -0 0 0 0 0 0 0 0 0 0 0 0 0 0 0 0 0 0 0 0 0 0 0 -0 0 0 0 -0 -0 -0 0 0 0 0 0 0 -0 0 0 0 -0 -0 -0 -0 -0 -0 -0 -0 -0 -0 -0 -0 -0 -0 -0 nan
nan 0 -0 0 0 0 -0 -0 0 -0 -1 -2 -1 -1 -0 -0 -0 -0 0 0 0 0 0 0 -0 -0 0 0 0 1 1 1 0 0 0 0 0 0 0 0 0 -0 0 0 -0 0 0 -0 0 0 0 0 0 0 -0 -0 0 0 -0 -0 -0 -0 -0 -0 -0 -0 -0 -0 -0 -0 -0 -0 -1 nan
nan -0 -0 0 0 0 0 0 -0 -0 -1 -1 -1 -0 -0 -0 -0 0 0 1 0 0 0 -0 -0 -0 0 0 1 1 0 -0 -1 -0 -0 0 0 0 0 0 0 0 -0 -0 0 0 -0 -0 0 0 0 0 0 0 0 0 -0 -0 -0 -0 -0 -0 -0 -0 -0 -0 -0 -0 -0 -0 -0 -0 -0 nan
nan -1 -0 1 0 0 0 0 0 0 -0 0 0 -0 -0 -0 0 0 1 0 0 0 -0 -0 -0 -0 -0 0 0 0 -1 -1 -0 0 0 0 1 1 0 0 0 0 0 0 0 0 -0 -0 0 0 0 0 0 0 0 0 -0 -0 -0 -0 -0 -0 -0 -0 -0 -0 -0 -0 -0 -0 -0 -0 -0 nan
nan -1 0 1 1 0 -0 0 0 0 0 0 1 0 0 0 1 1 0 -0 -0 -0 -0 -0 -0 -0 -0 -0 -0 -0 -0 0 1 0 0 0 1 1 0 0 0 0 0 0 -0 0 0 0 0 0 0 0 0 0 0 0 -0 -0 0 0 -0 -0 -0 -0 -0 -0 -0 -0 -0 -0 -0 -0 -0 nan
nan -0 1 1 1 -0 -0 0 0 0 0 0 0 0 0 1 1 0 -0 -0 -0 -0 -0 -0 -0 -0 -0 -0 0 0 1 1 0 0 0 1 1 1 0 -0 0 0 0 0 -0 -0 0 0 0 -0 0 0 0 0 1 0 -0 -0 0 0 0 0 0 -0 -0 -0 -0 -0 -0 -0 -0 -0 -0 nan
nan -0 1 1 0 -0 -0 0 0 0 0 0 0 0 0 0 0 0 0 0 0 0 -0 0 -0 -0 -0 0 0 0 0 1 0 0 0 0 1 1 0 -0 -0 0 1 0 -0 0 0 0 0 -0 0 0 0 0 1 0 0 -0 -0 -0 0 0 0 0 -0 -0 -0 -0 -0 -0 -0 -0 -0 nan
nan -0 1 1 0 -0 -0 -0 0 0 0 0 0 0 0 1 1 1 1 0 0 -0 -0 -0 0 0 0 0 0 0 1 1 0 0 0 0 1 0 -0 0 0 1 1 0 -0 0 0 0 0 -0 0 0 0 0 0 0 0 -0 -0 -0 0 0 0 0 -0 -0 -0 -0 -0 -0 -0 -0 -0 nan
nan 0 0 1 0 -0 -0 -0 0 0 0 0 0 0 0 0 1 1 0 -0 -0 -0 -0 -0 0 0 0 0 0 1 1 1 0 0 0 1 1 0 0 1 1 1 0 0 0 -0 0 0 0 -0 0 0 0 0 0 0 0 -0 -0 0 0 0 0 0 0 -0 -0 0 0 -0 -0 -0 -0 nan
nan -0 -0 0 0 -0 -1 -0 -0 0 0 0 0 -0 -0 0 0 0 -0 -0 0 0 0 0 0 0 0 0 0 1 1 0 0 0 0 0 0 0 1 1 1 0 0 0 0 -0 0 0 0 -0 0 0 0 0 0 0 0 0 0 0 0 0 0 0 0 -0 -0 -0 0 -0 -0 -0 -0 nan
nan -0 -1 -0 0 -0 -1 -0 -0 -0 -0 -0 -0 -0 -0 -0 0 0 0 1 1 0 0 0 0 0 0 0 0 0 0 0 1 1 0 0 0 0 1 1 0 0 0 0 0 0 0 0 0 0 0 0 0 -0 0 0 0 0 0 0 0 0 0 0 0 -0 -0 -0 0 0 -0 -0 -0 nan
nan -1 -1 -0 0 -0 -0 -0 -0 -0 -0 -0 -0 -0 -0 -0 0 1 1 1 1 1 0 0 0 0 0 0 0 0 0 1 1 0 0 0 0 0 0 0 0 0 0 0 0 0 0 0 0 0 0 -0 0 0 0 0 0 0 0 0 0 0 0 1 0 0 -0 -0 0 0 0 -0 -0 nan
nan -0 -0 -0 -0 -0 0 0 -0 -0 -0 -0 -0 -0 -0 -0 0 1 1 1 1 1 0 0 0 0 0 0 0 0 0 0 0 0 0 0 0 0 0 0 1 1 0 0 0 0 0 0 0 0 -0 -0 0 0 0 0 0 0 0 0 0 0 0 0 0 0 -0 -0 0 0 0 -0 -0 nan
nan -0 -0 -1 -0 0 1 1 0 -0 -0 -0 0 0 -0 0 1 1 1 1 1 1 0 0 0 0 1 0 0 0 0 0 0 0 0 0 1 1 0 1 1 1 0 0 0 0 0 0 0 0 0 0 0 0 0 0 0 0 0 0 0 0 0 0 0 0 0 0 0 0 0 0 -0 nan
nan 0 -1 -1 -0 1 1 1 0 -0 -0 0 0 -0 -0 0 1 1 1 1 1 1 1 0 0 0 0 0 0 0 0 0 0 0 1 1 1 1 0 0 0 0 0 0 0 0 0 0 0 0 0 0 0 0 0 0 0 0 0 0 0 0 0 0 0 0 0 0 0 0 0 0 0 nan
nan -0 -1 -1 0 2 1 1 0 -0 0 0 -0 -0 0 1 1 1 1 1 1 1 0 0 0 0 1 1 0 0 0 0 1 1 1 1 1 0 0 0 0 0 0 0 0 0 0 0 0 0 0 0 0 0 0 0 0 0 0 0 0 0 0 0 0 0 0 0 0 0 0 0 0 nan
nan -0 -1 -0 1 2 1 0 0 0 0 -0 -0 0 0 1 1 1 1 1 1 0 0 0 0 0 1 1 1 0 0 0 1 1 1 1 1 0 0 0 0 0 0 1 1 1 0 0 0 0 0 0 0 0 0 0 0 0 0 0 0 0 0 0 0 0 0 0 0 0 0 0 0 nan
nan 1 0 0 1 2 1 0 0 -0 -0 -0 -0 0 0 0 1 1 1 1 0 0 0 0 0 0 0 1 1 0 0 0 0 1 1 0 0 0 0 0 0 1 1 1 0 0 0 0 -0 0 0 0 0 0 0 0 0 0 0 0 0 0 0 0 0 0 0 0 0 0 0 0 0 nan
nan 1 1 1 1 2 1 0 0 -0 -0 -0 0 0 0 1 1 1 1 1 0 0 0 0 0 0 0 0 0 0 0 0 0 0 0 0 0 0 0 1 1 1 0 0 0 0 0 -0 -0 0 0 0 0 0 0 0 0 0 0 0 0 0 0 0 0 0 0 0 0 0 0 0 0 nan
nan 1 1 1 1 1 1 0 -0 -0 0 0 1 0 0 1 1 1 1 1 0 0 0 0 0 0 0 0 1 1 1 0 0 0 -0 -0 0 0 1 1 1 1 0 0 0 0 -0 -0 -0 1 1 0 0 0 0 0 0 0 0 0 0 0 0 0 0 -0 -0 0 0 0 0 0 0 nan
nan 2 1 1 1 1 0 0 0 0 1 1 0 0 0 0 0 1 1 0 0 0 0 0 0 0 0 0 1 1 1 0 -0 -0 -0 0 0 0 1 1 1 0 0 0 0 0 -0 -0 0 1 1 0 0 0 0 0 0 0 0 0 0 0 0 0 0 -0 -0 0 0 0 0 0 0 nan
nan 1 1 1 0 0 1 0 1 1 1 0 0 -0 0 0 0 1 1 1 1 1 1 1 0 0 0 0 0 0 0 -0 0 0 0 0 0 0 1 1 1 0 0 0 0 0 -0 -0 0 1 1 0 0 0 0 0 0 0 0 0 0 0 0 0 0 -0 -0 0 0 0 0 0 0 nan
nan 1 1 0 0 0 1 1 1 1 0 -0 0 0 0 0 0 1 1 1 1 1 1 1 0 0 0 0 0 0 0 0 0 0 0 0 0 1 1 0 0 0 0 0 0 0 0 0 0 0 0 0 0 0 0 0 -0 -0 0 0 0 0 0 0 0 0 0 0 0 0 0 0 0 nan
nan 1 1 -0 -0 0 0 0 0 -0 -0 -0 0 0 0 0 0 0 0 0 1 1 1 1 0 0 -0 0 0 0 0 0 1 1 0 0 0 1 0 0 0 0 0 0 1 0 0 0 0 0 0 0 0 0 0 -0 -0 -0 0 0 0 0 0 0 0 0 0 0 0 0 0 1 1 nan
nan 1 0 -0 -0 -0 0 -0 -0 -0 -0 0 0 0 0 0 0 0 0 1 1 1 1 1 1 0 0 0 0 0 0 0 1 1 0 0 0 0 0 0 0 0 0 0 1 0 0 0 0 0 0 0 0 0 -0 -0 -0 0 0 0 0 0 0 0 0 0 0 0 0 0 0 1 1 nan
nan 0 -0 -0 -0 0 0 -0 -0 0 0 0 0 0 0 -0 0 0 0 1 2 2 1 1 1 0 0 0 0 0 0 1 1 0 0 0 0 0 0 0 0 0 0 0 0 0 0 0 0 0 0 0 -0 -0 -0 -0 -0 0 0 0 0 -0 0 0 1 0 0 0 0 0 0 1 1 nan
nan 0 -0 -0 -0 0 0 0 0 1 1 1 1 -0 -1 -0 0 0 0 1 1 1 1 1 1 1 0 0 0 0 0 1 1 0 0 -0 -0 -0 0 0 0 0 0 -0 0 1 1 0 0 0 0 -0 -0 -1 -0 -0 0 0 0 0 -0 0 0 0 0 0 0 0 1 0 0 0 1 nan
nan -0 0 -0 -0 0 0 1 1 1 1 1 0 -1 -1 -0 1 1 1 1 1 1 1 1 1 1 1 0 0 0 0 1 0 0 -0 -0 0 0 0 0 0 0 0 0 0 1 0 0 0 0 -0 0 -0 -1 -0 0 0 0 -0 -0 -0 0 1 1 0 0 0 0 1 1 0 0 1 nan
nan -0 0 -0 -0 0 0 1 1 1 1 0 -0 -1 -0 0 1 1 1 1 1 1 1 1 1 1 1 0 0 0 0 0 0 -0 -0 0 0 0 0 0 0 0 0 0 1 1 0 0 0 0 0 0 -0 -1 -0 -0 -0 -0 -0 0 0 0 1 1 0 0 0 1 1 0 0 1 1 nan
nan 0 0 -0 -0 0 0 0 1 1 1 0 -0 -0 0 0 1 1 0 0 0 1 1 0 0 1 1 1 0 0 0 0 0 0 0 0 0 0 0 0 0 0 0 1 1 0 0 0 0 0 0 0 -0 -0 -0 -0 -0 -0 0 0 0 0 0 1 0 0 1 1 0 0 0 1 1 nan
nan 0 0 -0 -0 0 0 1 1 0 0 0 0 0 0 1 1 0 0 0 1 0 0 1 1 1 1 1 0 0 0 0 0 0 0 0 0 0 -0 -0 0 0 1 1 1 0 0 -0 -0 0 0 0 0 0 0 -0 -0 -0 0 1 0 0 0 1 1 1 1 0 0 0 1 1 1 nan
nan -0 -0 -0 -0 0 1 1 1 1 1 0 0 0 0 0 0 0 1 1 1 0 0 0 0 0 0 0 0 0 0 0 0 0 0 0 -0 -0 -0 0 0 1 1 1 0 0 0 -0 -0 0 0 0 0 0 -0 -0 -1 -0 0 1 0 0 1 1 1 1 0 0 0 0 1 1 1 nan
nan -1 -1 -0 -0 0 1 1 1 1 1 0 0 -0 -0 -0 1 1 1 1 0 0 0 0 0 0 0 0 -0 -0 -0 -0 -0 0 0 0 0 0 0 0 0 0 0 0 0 0 0 0 0 0 0 0 0 -0 -0 -0 -0 -0 0 0 0 1 1 1 1 0 0 0 0 1 1 1 0 nan
nan -1 -1 0 1 1 2 1 1 1 1 0 0 0 -0 0 1 1 1 0 0 0 -0 0 0 0 0 -0 -0 -0 -0 -0 0 0 0 0 0 0 0 0 0 0 0 0 0 0 0 0 0 0 -0 -0 -0 -1 -1 -0 -0 0 0 1 1 1 1 1 0 0 0 0 0 1 1 1 1 nan
nan -0 0 1 1 1 2 2 1 1 1 1 0 0 0 1 1 1 0 0 -0 -0 -0 0 0 0 0 0 0 0 0 0 0 0 0 0 0 0 0 0 0 0 0 0 0 0 0 0 0 -0 -0 -0 -0 -1 -0 -0 -0 0 1 1 1 2 1 1 0 0 0 1 1 1 1 1 1 nan
nan nan nan nan nan nan nan nan nan nan nan nan nan nan nan nan nan nan nan nan nan nan nan nan nan nan nan nan nan nan nan nan nan nan nan nan nan nan nan nan nan nan nan nan nan nan nan nan nan nan nan nan nan nan nan nan nan nan nan nan nan nan nan nan nan nan nan nan nan nan nan nan nan nan
Wind_Speed
27 26 26 27 27 26 26 26 26 24 23 24 24 25 27 26 25 26 27 26 24 21 20 18 16 17 16 14 11 10 10 10 9 9 10 10 10 10 9 9 10 11 11 11 10 8 7 5 3 2 3 5 8 11 13 15 17 17 18 18 19 19 20 20 20 20 21 21 22 23 23 23 24 24
27 27 26 26 25 25 24 23 22 21 20 19 19 21 25 26 24 22 21 23 22 21 20 18 16 16 15 13 12 11 11 10 10 11 11 11 11 10 9 8 10 10 10 10 10 8 7 5 4 2 3 5 7 10 12 14 15 16 17 18 19 20 21 21 22 22 22 22 22 23 23 23 24 24
26 25 25 24 23 22 22 21 21 21 20 19 17 18 24 24 21 19 16 15 18 19 18 16 15 13 11 12 12 12 12 11 11 13 12 11 11 10 9 8 9 10 10 9 9 8 7 5 4 4 3 3 6 9 11 13 14 16 17 19 20 21 22 23 23 23 23 23 23 23 23 24 24 24
26 25 24 23 21 20 20 19 20 20 18 18 15 15 19 21 20 18 13 10 11 15 17 16 14 12 11 13 13 13 12 12 13 14 13 12 11 10 9 8 8 9 9 8 8 7 6 5 4 3 3 2 5 9 11 12 14 17 18 19 21 22 24 24 24 23 23 23 23 23 23 23 24 24
26 25 25 23 20 18 17 17 18 19 17 16 12 11 15 19 20 18 14 10 9 12 16 17 15 12 13 14 14 14 14 13 13 13 13 13 12 11 10 8 7 9 10 9 8 6 5 5 4 2 1 1 5 8 10 12 14 16 17 18 20 22 24 24 24 23 23 23 23 23 24 24 24 24
26 26 25 22 19 16 16 16 15 15 14 14 12 12 16 19 19 17 17 14 11 12 16 18 16 15 14 14 14 15 15 14 13 13 13 13 13 12 12 10 8 9 12 11 8 6 4 3 2 1 1 2 5 7 9 11 13 15 16 17 19 21 22 23 23 23 24 24 24 24 24 24 23 23
27 26 22 18 16 14 13 13 11 11 13 14 13 14 18 19 17 19 20 17 13 12 14 17 17 16 16 14 13 13 14 14 14 13 12 12 12 12 13 12 10 11 14 11 7 6 3 1 1 1 2 2 3 6 7 9 11 13 14 16 19 20 21 21 22 23 24 24 25 24 24 24 23 22
25 22 17 14 13 12 10 9 8 12 15 15 14 16 18 18 19 21 21 18 16 14 14 15 15 15 15 14 12 14 16 16 16 14 12 12 12 12 12 12 10 12 14 12 8 7 4 1 1 2 3 3 2 3 5 7 9 10 12 15 18 19 20 21 22 23 23 24 25 25 25 24 22 22
22 16 13 12 11 10 9 7 7 12 16 17 16 18 19 18 20 22 21 20 18 17 15 14 14 15 16 16 15 16 18 18 17 16 13 12 12 12 11 10 10 12 15 13 11 9 6 3 3 4 4 3 2 0 2 4 6 8 11 14 17 18 20 21 22 22 23 24 25 25 25 24 22 21
18 13 11 11 9 9 8 7 7 12 17 18 17 18 18 18 19 21 22 21 20 19 17 15 15 16 18 19 19 19 20 20 18 16 15 14 14 13 13 12 11 13 14 14 12 10 7 5 5 7 6 4 4 3 0 2 4 6 9 12 15 17 18 20 21 21 23 24 24 25 25 24 23 21
15 13 13 11 9 9 8 6 6 10 17 19 17 17 18 19 20 21 22 22 22 21 19 18 17 18 19 21 21 21 21 21 19 17 17 17 16 15 15 14 13 13 14 14 13 12 9 7 8 9 8 7 7 6 3 1 1 3 7 11 14 15 16 18 20 21 22 23 24 25 25 25 24 22
14 14 15 13 9 9 9 7 6 10 16 18 17 17 19 21 21 21 21 22 23 23 22 21 20 20 22 23 23 23 24 24 22 20 19 19 17 16 15 15 14 13 14 13 13 15 13 11 11 12 11 10 10 8 6 4 2 1 5 8 11 13 15 17 18 20 21 23 23 24 25 25 25 24
14 15 17 14 10 9 9 8 9 11 15 17 17 18 20 21 21 21 21 22 23 24 24 24 23 24 25 26 25 26 27 24 21 18 17 18 18 17 16 16 15 15 15 14 14 16 14 12 12 13 12 11 11 9 8 7 5 3 4 6 9 11 13 15 16 18 20 22 23 24 25 26 25 25
17 17 17 14 11 10 10 10 11 12 15 17 17 17 19 19 20 20 21 22 23 24 25 26 26 26 28 28 27 26 25 22 19 18 16 17 18 19 19 18 17 17 17 17 17 16 15 14 14 13 12 12 11 11 10 9 9 7 6 5 7 10 11 13 14 17 19 20 22 23 24 25 26 25
19 18 17 15 14 14 12 11 13 15 16 18 18 18 19 19 19 20 21 22 23 24 26 27 27 29 29 29 28 26 23 21 19 17 16 17 19 22 22 20 19 18 19 19 18 16 15 16 15 14 13 13 13 13 12 11 11 11 9 7 7 9 10 11 12 14 17 18 20 21 22 24 25 26
20 19 18 17 17 17 15 13 14 16 18 19 20 21 22 21 22 22 22 22 23 24 26 28 29 30 29 29 28 25 23 21 19 17 17 18 21 23 23 22 20 18 17 19 19 17 16 17 17 15 14 14 13 13 13 13 14 13 12 10 8 8 10 10 10 12 14 16 17 19 20 22 24 26
20 20 19 19 19 19 18 17 16 17 18 19 20 21 22 22 23 23 23 24 24 25 25 27 29 28 28 28 27 24 22 21 20 19 18 19 22 24 24 22 20 17 17 18 17 17 15 16 17 16 13 13 13 12 14 16 16 15 14 12 10 10 10 10 9 10 12 13 15 17 20 22 24 26
22 21 21 22 23 22 22 20 19 18 19 20 21 22 22 23 23 24 25 26 26 26 25 25 26 26 26 26 24 22 21 21 20 19 17 17 20 21 19 19 18 17 17 17 17 17 16 15 17 15 12 13 14 12 13 16 17 17 15 13 12 11 12 11 10 10 11 12 14 15 18 21 23 26
23 23 23 24 25 25 24 22 20 19 19 20 22 23 23 23 24 25 26 27 27 26 24 24 24 24 24 23 22 21 20 20 19 17 14 12 13 15 16 18 19 19 19 19 20 21 18 17 18 16 13 14 15 14 13 15 17 17 15 13 12 13 14 13 11 11 10 12 14 14 15 18 21 24
23 23 23 24 26 26 24 21 19 19 19 20 21 22 22 22 23 24 25 26 26 26 25 25 24 24 23 22 21 21 20 18 18 17 15 13 13 15 18 21 21 21 21 22 23 23 21 19 19 17 15 15 17 16 15 14 16 17 14 12 13 15 16 15 13 12 11 12 14 15 15 17 19 21
23 23 23 24 25 25 22 20 19 18 19 19 19 19 20 20 21 22 23 25 26 26 26 26 25 25 24 22 21 20 19 17 17 18 18 16 16 18 20 22 22 23 23 23 23 23 22 20 19 18 17 17 18 17 15 14 15 16 14 13 13 14 15 15 14 13 13 13 14 15 15 16 18 20
23 23 23 24 24 23 21 19 19 18 18 18 18 18 18 19 20 21 22 24 25 25 26 26 26 26 25 24 22 19 18 18 19 20 19 17 18 19 20 21 22 23 24 23 22 22 22 20 19 19 19 18 18 17 15 14 14 14 13 13 13 13 14 14 14 14 13 14 14 15 15 16 17 19
26 24 24 25 25 22 20 19 18 17 18 19 18 17 18 19 20 20 21 22 22 23 23 24 25 25 25 24 22 20 19 20 20 20 18 17 18 19 19 19 21 24 25 24 23 22 21 20 19 19 19 18 18 17 16 15 14 12 12 11 12 13 13 13 13 13 13 14 15 15 16 16 17 18
29 27 26 25 24 21 19 18 17 17 18 18 17 17 18 18 18 18 19 20 20 21 22 22 23 24 24 24 22 20 20 21 21 20 19 19 20 20 18 18 20 23 23 22 22 22 20 19 18 18 17 17 17 17 15 14 13 11 10 11 12 13 13 13 13 12 12 13 14 15 16 16 17 19
31 30 27 25 22 21 19 18 18 18 18 18 17 17 15 14 14 15 17 17 18 19 20 21 22 23 23 23 22 21 21 21 21 20 21 22 22 21 19 18 20 22 22 21 20 19 18 18 18 17 17 17 17 17 15 13 11 9 9 11 13 13 13 13 12 12 12 13 14 14 16 17 18 19
32 31 27 23 21 20 19 19 18 18 18 17 16 14 13 13 14 15 15 16 17 18 18 19 20 20 21 22 22 21 21 21 21 21 22 22 22 21 20 20 21 22 22 21 21 19 18 18 17 18 18 18 18 17 15 12 10 9 9 11 13 13 13 13 12 13 14 14 14 15 16 18 19 20
32 30 27 23 21 20 20 19 19 18 17 16 15 13 12 13 14 15 16 16 16 16 16 16 17 17 18 20 20 21 21 21 22 22 22 22 21 21 21 22 22 22 21 21 21 21 20 19 18 18 19 19 18 18 15 12 9 8 9 11 12 12 12 12 13 13 14 14 14 15 16 18 19 20
32 30 26 23 21 20 20 20 19 18 17 16 15 13 12 13 14 16 17 17 16 16 16 15 14 14 15 17 19 19 20 20 21 21 21 21 21 21 21 21 22 21 21 21 22 22 21 20 19 19 20 20 19 18 15 12 10 9 11 12 12 11 11 11 12 13 13 14 15 16 17 18 19 19
31 28 25 22 20 20 21 21 20 19 18 17 15 13 13 14 16 17 18 18 18 18 17 16 14 13 13 14 15 16 17 19 20 20 20 20 20 20 20 21 21 21 20 20 20 20 20 19 19 20 21 21 20 19 17 14 12 11 12 13 11 10 10 11 12 13 12 13 16 17 17 18 19 19
29 26 24 22 21 21 22 22 22 20 19 16 15 14 15 16 17 18 19 20 20 19 18 16 14 12 11 12 14 16 18 19 20 19 19 19 19 20 20 21 21 21 21 20 18 18 18 18 19 21 22 21 20 18 17 15 13 12 13 12 11 11 11 12 12 12 12 13 16 18 18 18 19 20
29 26 23 22 22 23 24 24 23 21 19 18 16 16 16 16 17 19 20 21 21 20 18 17 15 13 12 14 16 18 19 19 19 18 18 18 18 19 20 22 22 22 21 20 19 17 17 17 19 21 21 20 19 18 17 16 15 13 13 13 12 12 13 13 12 12 12 14 17 18 19 19 19 20
29 26 25 25 25 25 25 26 25 24 22 21 19 17 17 16 17 19 21 22 23 22 20 19 17 16 15 16 17 18 19 19 18 18 18 17 17 17 18 19 21 22 23 22 21 19 18 18 19 21 21 21 20 19 18 17 15 13 12 13 13 14 15 14 12 12 13 15 17 18 19 19 19 20
31 29 29 29 29 28 28 29 28 27 25 23 21 19 17 16 17 19 22 24 24 23 22 21 20 19 17 16 17 19 19 18 17 17 18 17 17 16 16 17 17 18 20 22 23 22 21 20 20 21 21 20 20 18 17 16 15 14 13 13 14 15 16 15 14 14 15 16 17 19 19 19 20 21
33 32 33 33 32 31 31 31 30 28 26 24 22 20 18 17 18 20 22 24 24 24 24 23 21 20 17 16 17 18 19 18 17 17 18 18 18 18 18 18 18 16 17 19 22 22 20 19 19 19 18 18 18 17 17 16 15 14 14 14 14 15 14 14 15 17 17 18 19 20 20 19 20 22
36 35 35 35 33 32 32 32 30 27 26 24 23 21 19 19 20 22 23 24 24 25 25 24 23 21 18 17 16 17 19 19 18 17 17 18 20 20 19 19 19 17 16 16 17 17 16 16 16 17 17 17 17 17 18 17 16 15 15 15 15 14 14 14 16 18 19 21 21 21 21 20 20 22
39 38 37 36 34 33 33 32 29 27 26 25 23 21 20 20 21 23 23 23 24 25 26 25 24 22 20 18 17 17 19 20 20 19 20 20 21 22 21 20 20 19 17 16 15 15 15 15 16 17 17 17 18 19 19 17 16 15 16 16 16 16 15 15 16 18 20 22 23 23 23 22 21 22
41 40 39 37 35 33 31 30 29 28 27 25 23 21 19 18 18 20 21 22 24 25 26 25 25 24 23 21 19 18 20 22 22 21 22 23 24 24 24 22 21 20 19 18 16 15 15 15 17 18 18 18 19 21 20 18 17 16 17 17 17 16 16 17 18 19 20 22 23 23 24 24 23 23
43 42 40 39 36 33 30 29 28 28 27 25 23 20 16 15 15 17 19 22 24 25 25 26 26 26 25 24 22 20 20 22 24 23 22 23 24 25 25 24 23 22 22 21 20 18 16 17 17 18 18 20 22 22 21 19 17 16 16 17 18 17 17 19 20 20 21 22 23 23 24 24 24 24
44 43 42 39 36 34 31 29 28 28 27 25 23 19 16 15 16 17 18 19 20 21 22 24 25 26 26 25 24 22 21 22 24 24 23 23 23 24 24 25 25 25 26 25 24 21 20 20 19 19 20 22 23 23 22 20 18 16 15 17 19 19 19 20 21 21 21 22 23 24 24 25 25 25
45 44 42 39 36 35 33 31 29 28 26 25 22 19 16 15 15 15 15 15 15 16 17 18 19 21 23 24 23 23 23 23 23 24 24 24 24 23 23 23 24 26 28 29 27 24 23 22 21 20 20 21 21 22 22 23 22 21 20 20 20 20 20 20 21 22 22 22 23 24 25 25 25 25
47 46 43 40 38 37 36 33 31 29 27 25 22 18 16 15 14 14 13 13 13 13 13 12 13 15 17 19 21 22 22 23 23 23 24 24 24 22 21 21 21 23 26 28 28 26 25 24 23 21 21 20 20 21 23 25 26 25 23 23 23 22 22 22 22 22 22 22 23 24 25 25 25 25
47 45 43 41 40 39 38 36 34 31 28 25 21 19 18 17 16 15 15 15 14 14 12 11 11 11 12 14 17 19 21 21 22 23 23 24 24 23 22 22 22 23 25 28 28 28 26 25 23 23 23 22 22 23 25 26 25 25 24 23 23 23 24 23 21 21 21 22 23 24 25 24 25 25
45 44 43 43 42 42 41 39 35 32 29 25 21 19 18 17 17 17 18 17 17 16 14 12 12 12 11 10 12 14 15 16 17 19 20 21 22 23 23 24 24 25 26 28 28 27 26 25 24 24 24 25 25 25 24 22 22 23 23 23 24 25 24 21 20 20 22 23 24 24 24 23 23 24
45 45 45 45 44 43 43 40 37 33 29 25 21 20 19 18 18 18 18 17 16 15 13 13 13 13 13 12 12 13 13 13 14 15 16 17 19 21 22 23 24 26 27 27 27 27 25 24 23 23 24 25 25 24 22 20 21 22 22 24 27 27 23 20 20 21 23 24 25 24 23 22 23 23
47 48 48 46 43 42 42 41 38 34 29 25 23 22 20 19 19 19 18 17 15 13 12 12 13 13 13 14 15 15 14 14 14 15 16 16 18 19 20 21 22 23 24 23 23 23 22 21 22 23 23 23 22 23 23 23 22 22 22 25 27 26 23 21 22 23 24 26 25 23 22 22 22 22
Wind_Direction
266 267 267 266 267 268 269 273 275 271 269 267 262 258 254 242 221 210 210 215 219 215 216 222 221 219 223 230 235 236 239 244 254 269 281 282 268 256 253 242 236 236 234 235 238 244 256 269 287 341 37 44 41 37 34 31 28 27 25 22 20 18 17 16 16 14 13 11 9 8 8 8 8 8
266 266 267 267 267 267 266 268 271 274 277 277 272 265 256 241 229 226 221 218 218 210 209 217 220 219 219 223 227 231 236 241 252 263 273 275 264 255 252 245 237 234 232 235 238 245 258 268 286 321 13 32 39 40 38 37 35 32 29 26 23 20 18 17 16 14 12 11 9 8 7 6 6 7
268 267 266 267 266 269 271 270 270 273 274 274 273 266 253 236 227 235 236 226 220 212 210 219 221 218 218 221 223 226 232 240 250 259 266 266 258 252 252 246 237 230 228 232 237 246 256 267 286 309 334 13 43 48 47 47 43 39 35 31 29 25 21 19 16 14 12 11 9 7 6 5 5 5
270 269 270 273 274 277 281 278 274 269 264 264 266 259 246 230 220 223 224 222 220 213 215 222 221 214 213 220 224 224 228 236 246 256 262 262 254 247 245 239 228 221 221 223 227 236 248 262 281 307 322 17 60 59 56 54 48 43 40 37 34 30 25 21 17 14 13 11 10 7 6 5 4 4
270 273 277 281 281 281 280 275 266 261 258 256 249 234 221 214 214 212 203 204 208 204 209 215 216 213 211 218 224 223 226 232 241 252 258 257 253 244 237 229 215 212 210 204 209 222 240 257 274 310 313 91 77 68 64 58 50 46 43 38 33 29 26 22 18 15 14 13 11 9 7 6 4 3
273 277 279 280 278 275 274 274 264 251 244 240 229 208 197 204 213 203 192 202 209 200 203 207 209 211 211 219 225 225 228 232 241 254 258 259 254 242 235 229 214 205 198 192 201 223 242 262 292 332 228 140 90 76 69 60 52 49 43 34 29 27 27 24 21 18 15 15 13 11 10 7 4 3
275 277 276 274 274 271 271 275 258 224 219 227 221 203 198 206 209 195 192 205 212 203 204 209 211 210 211 219 227 231 234 235 242 253 260 261 252 238 233 227 211 198 194 195 210 228 237 280 323 294 210 172 102 79 71 61 56 51 40 30 27 28 29 28 25 20 16 15 14 13 12 10 6 3
273 270 265 264 265 259 260 269 240 204 206 217 213 204 205 206 198 193 197 207 214 213 212 218 223 218 215 221 226 230 234 234 239 247 253 254 247 233 226 221 209 200 202 211 225 231 239 289 282 236 210 183 129 79 67 60 60 51 35 26 25 27 30 30 27 22 17 15 15 14 14 12 8 5
264 256 249 251 249 237 237 252 236 205 200 208 209 204 202 198 192 195 202 208 216 221 221 227 232 224 220 224 227 230 232 232 236 240 241 242 240 232 222 213 207 206 210 219 227 228 236 253 235 225 212 193 199 142 57 63 64 48 30 22 22 26 29 28 25 23 19 16 15 15 15 14 11 7
248 237 230 231 226 218 219 232 234 208 198 201 205 199 195 191 190 196 202 208 217 223 226 234 238 232 228 226 226 228 230 234 240 245 241 236 232 229 224 215 207 204 208 218 226 229 239 253 239 225 217 219 236 249 324 70 68 45 25 18 19 22 25 26 25 25 21 18 16 15 15 14 13 11
229 220 218 213 204 207 207 205 215 203 194 195 196 192 187 185 190 197 202 208 216 222 227 233 239 242 239 233 228 228 229 231 239 246 246 243 237 231 227 223 215 209 211 219 225 228 236 242 232 224 225 235 246 256 259 213 91 38 17 13 15 19 23 26 26 24 22 19 16 15 15 15 14 14
219 215 214 205 195 204 204 190 190 191 188 189 188 186 185 186 193 200 205 210 217 223 228 232 237 241 241 237 231 226 223 224 231 239 243 247 249 246 239 232 224 222 226 230 228 225 227 232 229 226 230 238 247 257 256 234 216 339 355 4 12 18 23 26 26 23 22 19 16 14 14 14 14 15
218 217 213 204 200 210 210 200 193 187 185 188 187 185 187 192 197 203 208 214 219 223 227 231 235 237 238 238 233 226 226 231 238 243 245 249 252 251 250 245 234 229 235 241 241 234 231 236 236 232 237 246 253 260 257 242 234 255 305 346 6 15 20 24 24 22 21 18 15 13 12 12 12 13
219 218 216 214 216 221 221 215 209 199 192 191 190 191 195 200 204 207 211 216 220 223 227 230 234 235 236 236 236 235 238 242 242 241 244 250 247 242 243 243 237 232 232 237 246 246 240 237 236 236 242 252 258 260 257 244 238 247 269 314 353 7 13 18 20 19 17 16 14 13 11 10 10 10
224 223 220 221 227 231 229 223 219 216 207 199 197 200 204 209 214 216 219 222 224 227 231 236 238 238 237 236 237 239 240 239 238 240 246 249 243 239 239 239 238 236 233 234 243 249 246 240 239 242 248 255 259 261 258 246 240 246 259 288 332 353 359 5 11 12 12 12 12 12 12 11 10 8
229 228 224 225 231 236 238 235 230 227 221 213 209 211 213 217 222 228 232 236 237 237 241 244 243 240 238 237 237 238 238 236 237 239 243 246 244 244 244 245 247 245 238 235 239 245 245 242 243 247 249 250 254 258 256 249 245 246 255 278 311 335 340 345 355 359 3 7 9 11 11 11 10 8
233 232 230 231 236 240 242 241 238 236 232 228 224 224 226 230 233 237 241 245 248 250 252 251 248 244 240 239 242 245 242 236 231 232 239 246 245 245 249 253 257 255 242 234 237 242 243 242 247 252 255 254 254 251 249 248 249 250 256 273 297 315 318 321 332 341 349 357 2 6 9 8 8 7
237 237 236 236 239 242 241 239 237 237 237 236 235 236 238 240 241 243 244 246 249 251 251 251 251 251 249 250 255 254 247 238 233 236 246 250 246 249 257 261 260 255 245 237 237 241 240 241 247 251 256 259 255 246 241 244 249 254 261 271 286 298 299 300 311 325 333 341 348 356 2 4 5 5
239 240 239 237 238 239 237 235 236 237 236 235 235 236 238 240 241 243 245 246 248 247 246 247 250 252 254 258 261 257 251 246 243 246 257 261 256 257 257 252 248 246 244 241 242 245 245 243 247 251 254 253 248 239 236 240 246 253 259 265 274 283 286 288 296 309 318 328 335 342 350 356 360 1
235 237 236 234 233 232 231 231 233 235 236 236 235 235 235 237 238 240 242 243 245 245 243 243 245 248 252 257 260 257 253 249 243 242 243 242 241 243 243 242 241 239 239 239 242 245 246 244 247 251 252 248 240 235 235 239 244 250 253 254 261 271 279 283 288 296 306 318 326 331 337 344 351 355
233 234 233 231 228 225 224 227 231 234 236 238 238 237 238 239 240 240 240 240 241 241 241 242 243 246 248 251 254 254 250 244 238 234 234 233 233 235 238 241 241 239 239 239 239 240 242 243 245 247 248 247 242 238 235 235 237 241 242 242 249 262 273 280 284 289 298 310 317 322 327 335 342 347
238 237 233 230 227 222 220 224 229 234 239 242 242 242 243 245 245 244 243 242 241 240 241 242 244 246 248 247 246 244 240 237 237 239 243 244 240 238 241 246 246 242 241 240 237 236 239 240 240 242 246 249 246 240 235 230 228 228 228 231 241 255 268 278 284 286 293 303 311 314 317 324 333 340
241 241 236 231 227 222 221 224 229 234 239 242 243 243 243 244 245 246 247 247 246 244 244 246 247 248 248 245 240 236 232 232 238 244 248 248 244 243 247 250 246 241 239 239 237 238 239 238 238 242 247 249 245 238 233 231 227 221 221 229 241 252 264 275 279 281 288 299 306 307 308 315 325 332
242 242 237 231 227 224 224 226 229 233 237 241 241 241 242 245 246 247 248 248 248 247 248 249 249 249 248 245 241 235 230 231 236 240 240 240 242 246 249 250 248 246 245 245 243 241 239 238 240 244 246 247 244 240 237 234 229 225 230 242 248 251 258 268 272 277 289 301 304 303 304 309 316 323
243 243 239 233 230 229 229 231 231 233 236 238 239 240 242 243 242 242 243 245 246 246 247 247 248 248 248 246 242 237 234 235 237 236 235 237 241 246 250 250 251 251 252 250 246 240 236 237 240 240 241 244 244 243 239 234 232 239 249 252 250 248 254 264 270 277 292 303 306 303 302 304 308 315
243 242 240 236 234 234 234 235 236 236 236 235 235 237 235 231 230 232 234 237 239 241 243 244 245 246 247 245 242 238 236 236 234 232 233 236 242 248 252 252 251 252 252 249 242 236 235 238 241 241 243 245 243 240 238 234 235 247 255 253 251 250 254 260 268 278 291 301 304 303 301 300 302 309
243 242 239 236 236 237 238 239 238 236 233 231 231 232 231 229 229 230 231 233 234 236 239 241 242 244 245 244 240 237 236 236 235 234 236 240 245 250 252 253 251 250 249 245 241 238 239 241 245 247 248 248 242 237 238 240 244 257 263 259 256 255 256 261 271 282 291 296 298 300 299 298 300 305
241 241 238 236 236 236 236 237 236 232 228 227 227 228 231 233 233 233 234 235 235 235 236 238 240 242 242 242 241 239 238 239 239 239 240 243 248 251 251 251 249 246 244 242 241 241 241 242 245 248 247 245 241 239 243 250 260 271 269 262 260 261 262 268 277 285 290 294 297 299 298 299 302 303
238 238 237 235 234 233 232 231 229 225 223 224 225 227 231 236 238 239 240 239 239 240 240 241 241 241 241 243 242 238 237 238 239 239 240 242 245 247 247 246 245 244 244 244 243 243 241 240 243 243 240 239 239 241 247 256 268 273 265 259 263 271 274 278 283 285 289 297 302 302 301 302 302 301
234 232 231 230 227 224 224 224 222 218 217 219 222 226 232 238 242 243 243 242 242 243 244 245 245 243 241 239 237 234 232 233 235 236 237 239 241 243 245 244 243 243 244 245 244 242 239 238 240 240 237 236 239 244 252 263 273 272 262 260 270 280 284 286 285 283 288 301 309 310 308 305 302 300
227 223 221 221 219 217 218 218 216 213 213 216 221 227 234 239 242 243 244 246 247 247 248 249 249 246 239 232 230 230 230 232 233 233 233 236 239 242 242 242 244 246 247 247 244 240 238 237 237 237 235 237 244 253 261 270 275 271 264 266 274 282 288 289 284 280 287 303 314 317 312 307 303 300
220 215 213 212 210 211 213 211 209 210 213 218 223 229 234 237 239 240 241 243 244 244 245 246 245 242 237 232 229 230 231 231 231 232 233 233 233 234 235 237 241 244 246 246 243 239 236 235 236 238 242 247 254 260 265 269 270 266 264 267 274 283 289 286 280 279 285 297 312 318 314 307 303 298
216 211 209 207 207 208 211 210 210 213 217 222 227 232 235 238 239 239 238 238 239 239 239 240 239 239 239 235 230 229 230 230 229 230 231 227 222 223 227 232 239 244 246 247 244 240 239 240 243 248 252 256 258 258 259 260 258 255 258 266 276 285 288 282 276 277 281 289 303 315 315 307 300 296
217 212 208 207 208 211 214 215 217 219 222 227 232 236 240 244 244 243 240 239 239 238 238 239 240 240 239 234 229 227 228 226 224 225 227 225 222 224 230 235 240 245 248 249 247 245 245 246 248 252 254 255 255 254 252 251 249 250 255 263 273 285 290 284 276 276 278 282 293 306 312 307 297 293
215 214 211 211 212 214 217 220 222 225 228 231 235 240 244 248 249 246 241 239 238 237 238 239 239 238 237 234 231 228 225 222 218 218 223 228 229 232 236 242 246 251 253 249 242 237 239 240 241 245 248 248 249 249 246 244 246 251 256 260 266 279 292 289 278 275 279 281 286 297 306 305 297 292
216 216 215 215 215 216 219 222 225 227 231 234 237 241 245 248 248 245 241 239 238 237 238 238 238 238 237 236 233 228 223 221 221 222 227 233 235 237 239 243 250 255 257 251 237 230 235 237 234 234 237 240 245 248 246 246 252 258 261 262 266 275 287 287 278 277 282 284 284 291 300 303 298 293
217 217 217 218 219 220 222 224 226 228 232 235 238 241 243 244 244 242 240 237 236 236 237 238 239 240 239 239 237 230 224 224 227 230 233 233 234 236 239 242 246 250 254 253 246 239 241 241 236 232 233 239 248 253 254 255 259 263 264 267 271 278 282 279 275 278 284 286 285 289 296 299 298 294
219 218 219 219 220 222 223 226 228 230 232 235 237 236 235 233 233 231 229 228 230 232 233 234 236 237 237 238 237 232 228 229 233 235 234 231 229 232 237 241 244 247 251 254 251 247 248 250 248 244 243 245 250 254 257 261 266 270 271 270 271 275 275 272 273 279 284 285 285 289 293 296 295 295
221 221 221 221 221 223 224 226 228 230 232 234 233 229 224 222 220 218 218 221 224 227 229 231 232 232 231 231 232 232 233 235 237 238 238 235 234 235 239 243 246 248 250 250 248 248 250 252 254 255 253 253 254 255 258 264 270 275 276 270 265 267 271 272 274 278 281 282 284 288 291 293 295 296
220 222 223 223 224 225 226 226 228 230 232 233 231 225 220 219 218 214 213 214 217 220 223 224 224 224 224 224 227 231 236 239 240 242 243 244 244 245 245 247 248 248 248 247 246 246 248 252 258 261 261 262 264 264 265 267 267 267 266 262 260 266 272 274 274 275 277 281 285 288 291 294 296 296
221 223 224 225 226 227 228 228 227 229 231 230 227 222 221 223 224 222 218 214 214 216 216 213 212 216 219 221 224 229 234 237 239 242 244 247 249 250 248 246 242 241 242 243 243 246 252 259 264 264 263 265 270 271 269 267 265 264 262 261 262 267 273 273 271 272 276 282 285 288 293 296 296 294
223 224 225 226 227 227 228 228 227 228 228 225 221 220 222 225 226 227 224 221 219 219 216 216 217 216 215 217 222 227 230 232 235 238 242 245 247 247 245 242 238 236 238 243 247 254 261 264 261 257 257 261 266 269 268 266 264 264 264 263 263 266 268 268 269 272 277 283 287 292 296 297 294 293
225 224 224 226 227 228 228 227 226 227 226 222 217 218 222 223 224 224 223 222 222 222 222 224 226 224 221 219 222 225 227 229 231 235 238 241 244 246 246 247 249 250 252 256 260 263 264 261 256 253 254 258 262 266 267 265 263 263 263 262 263 264 265 267 271 277 282 287 291 296 297 294 289 290
225 223 224 225 226 228 229 228 226 225 224 220 215 217 220 221 221 224 226 226 227 230 233 233 232 231 232 231 229 231 234 236 238 241 242 243 245 248 250 253 256 258 259 261 262 260 257 254 252 252 255 258 259 260 263 266 267 266 263 260 260 263 267 272 278 283 289 294 297 298 296 291 289 289
225 223 223 225 225 227 229 229 227 224 220 215 215 219 220 219 221 225 228 229 231 234 239 241 239 238 240 239 238 241 244 246 248 247 246 248 250 251 252 253 254 256 257 257 257 255 251 248 247 250 255 258 258 258 261 264 266 265 262 258 258 261 269 277 283 288 294 298 299 297 293 291 291 293
Height
1546 1546 1545 1545 1544 1544 1544 1543 1543 1542 1543 1543 1543 1544 1544 1545 1547 1549 1551 1553 1554 1556 1557 1559 1560 1561 1562 1564 1565 1566 1567 1568 1568 1569 1569 1569 1569 1569 1569 1569 1569 1569 1569 1570 1570 1570 1569 1569 1569 1568 1568 1567 1567 1566 1565 1565 1564 1562 1561 1560 1559 1558 1556 1554 1552 1550 1548 1546 1544 1542 1540 1538 1536 1533
1544 1543 1543 1542 1542 1542 1542 1542 1542 1541 1542 1542 1542 1543 1543 1544 1546 1548 1549 1551 1552 1554 1556 1557 1559 1559 1560 1562 1563 1565 1566 1566 1567 1568 1568 1568 1568 1568 1568 1568 1568 1568 1568 1569 1569 1569 1569 1569 1568 1568 1568 1567 1566 1566 1565 1563 1562 1561 1560 1559 1558 1558 1557 1555 1553 1551 1549 1547 1545 1542 1540 1538 1536 1534
1541 1541 1540 1540 1540 1540 1540 1540 1540 1539 1540 1540 1540 1541 1541 1543 1546 1547 1549 1550 1551 1553 1555 1556 1557 1558 1559 1561 1562 1564 1564 1565 1566 1566 1567 1567 1567 1567 1566 1567 1567 1567 1567 1568 1568 1568 1568 1567 1567 1567 1567 1566 1565 1565 1564 1562 1561 1561 1559 1558 1557 1557 1557 1556 1554 1552 1550 1548 1545 1543 1541 1539 1536 1534
1539 1539 1538 1538 1538 1537 1537 1537 1537 1537 1538 1538 1538 1539 1540 1542 1545 1547 1548 1549 1550 1552 1554 1555 1557 1558 1559 1560 1561 1562 1563 1564 1564 1565 1565 1565 1565 1565 1566 1566 1566 1566 1566 1567 1567 1567 1567 1566 1566 1566 1566 1565 1565 1564 1563 1562 1562 1561 1559 1557 1556 1556 1556 1556 1554 1552 1550 1548 1546 1544 1541 1539 1537 1534
1537 1536 1536 1536 1536 1535 1535 1534 1534 1534 1535 1536 1536 1537 1538 1541 1543 1546 1547 1549 1550 1551 1552 1554 1556 1557 1558 1559 1560 1561 1562 1562 1563 1564 1564 1564 1564 1564 1565 1565 1565 1565 1566 1566 1566 1566 1565 1565 1565 1565 1565 1565 1564 1564 1563 1562 1562 1561 1559 1557 1556 1555 1556 1555 1554 1553 1551 1549 1546 1544 1542 1539 1537 1535
1535 1535 1534 1534 1534 1533 1533 1532 1531 1532 1533 1534 1535 1536 1537 1540 1542 1545 1546 1547 1549 1549 1551 1552 1554 1555 1557 1558 1558 1559 1560 1561 1562 1563 1563 1563 1563 1563 1564 1564 1564 1564 1564 1565 1565 1565 1565 1565 1565 1565 1565 1565 1564 1564 1563 1563 1562 1561 1560 1558 1556 1555 1555 1555 1554 1553 1551 1549 1547 1545 1542 1540 1538 1535
1533 1533 1532 1532 1532 1531 1531 1530 1529 1530 1531 1532 1533 1535 1537 1539 1542 1543 1545 1546 1548 1548 1549 1550 1552 1553 1555 1556 1556 1557 1559 1560 1561 1561 1561 1561 1562 1562 1562 1562 1562 1563 1563 1564 1565 1565 1565 1565 1565 1566 1565 1565 1565 1564 1564 1563 1562 1561 1560 1559 1557 1556 1555 1554 1553 1552 1551 1549 1547 1545 1543 1540 1538 1536
1531 1531 1531 1531 1531 1530 1530 1529 1529 1529 1530 1531 1533 1534 1536 1538 1541 1542 1544 1545 1547 1547 1548 1549 1550 1552 1553 1554 1555 1556 1557 1558 1559 1560 1560 1560 1560 1561 1561 1561 1561 1562 1563 1563 1564 1564 1565 1565 1565 1565 1565 1565 1565 1565 1564 1563 1562 1562 1561 1559 1558 1556 1555 1554 1553 1552 1551 1550 1548 1545 1543 1541 1539 1537
1529 1529 1530 1530 1530 1529 1529 1528 1528 1528 1529 1531 1532 1533 1535 1537 1539 1541 1543 1544 1545 1546 1547 1548 1549 1550 1552 1553 1554 1555 1556 1557 1558 1558 1559 1559 1559 1560 1560 1560 1560 1561 1562 1562 1563 1563 1564 1564 1564 1564 1564 1565 1565 1565 1564 1563 1563 1562 1561 1559 1558 1557 1555 1555 1553 1552 1551 1550 1548 1546 1544 1542 1540 1538
1527 1528 1528 1529 1528 1528 1528 1528 1527 1527 1528 1530 1531 1532 1534 1537 1538 1540 1542 1543 1544 1545 1545 1546 1547 1548 1549 1551 1552 1553 1554 1555 1556 1556 1557 1557 1557 1558 1559 1559 1559 1560 1561 1561 1562 1562 1563 1564 1564 1564 1564 1564 1564 1564 1564 1563 1563 1562 1561 1560 1558 1557 1556 1555 1554 1552 1552 1550 1549 1547 1545 1542 1540 1538
1526 1526 1527 1528 1527 1527 1527 1527 1527 1527 1528 1529 1530 1532 1534 1536 1537 1539 1540 1541 1542 1543 1544 1545 1546 1547 1547 1548 1550 1552 1553 1554 1555 1555 1555 1555 1555 1556 1557 1558 1558 1559 1559 1560 1560 1561 1562 1563 1563 1563 1563 1563 1563 1563 1563 1563 1562 1562 1561 1560 1559 1558 1556 1555 1554 1553 1552 1551 1549 1547 1545 1543 1541 1539
1524 1524 1526 1526 1526 1527 1527 1527 1527 1527 1528 1529 1530 1532 1534 1535 1536 1537 1539 1540 1541 1542 1543 1543 1544 1545 1546 1546 1548 1550 1551 1551 1552 1553 1553 1553 1553 1554 1555 1556 1557 1557 1558 1558 1559 1560 1561 1561 1561 1561 1562 1562 1562 1562 1562 1562 1562 1561 1561 1560 1559 1558 1556 1555 1554 1553 1552 1551 1550 1548 1546 1543 1541 1540
1522 1523 1524 1525 1525 1526 1526 1526 1527 1528 1528 1529 1531 1532 1533 1534 1535 1536 1537 1538 1539 1540 1541 1541 1542 1543 1544 1544 1545 1546 1546 1547 1549 1550 1551 1551 1552 1552 1553 1554 1555 1556 1557 1557 1557 1558 1559 1559 1559 1560 1560 1560 1561 1561 1561 1561 1561 1561 1560 1560 1559 1557 1556 1555 1554 1553 1552 1551 1550 1548 1546 1544 1542 1540
1520 1521 1523 1523 1524 1525 1525 1526 1527 1527 1528 1529 1530 1532 1532 1533 1534 1535 1536 1536 1537 1538 1538 1539 1540 1541 1541 1541 1542 1543 1544 1546 1548 1549 1550 1550 1550 1551 1552 1552 1553 1554 1555 1555 1556 1556 1557 1558 1558 1558 1559 1559 1559 1560 1560 1560 1560 1560 1560 1559 1558 1557 1556 1555 1554 1553 1552 1551 1550 1548 1546 1544 1543 1541
1519 1520 1521 1522 1522 1523 1524 1525 1526 1526 1527 1528 1529 1530 1531 1532 1533 1533 1534 1535 1536 1536 1536 1537 1538 1538 1538 1539 1540 1542 1543 1545 1546 1547 1548 1548 1548 1549 1549 1550 1551 1552 1552 1553 1554 1555 1556 1556 1556 1557 1557 1558 1558 1558 1559 1559 1559 1559 1559 1558 1557 1556 1555 1554 1554 1553 1552 1551 1550 1549 1547 1545 1543 1541
1518 1518 1519 1520 1521 1521 1522 1523 1524 1525 1526 1527 1528 1529 1530 1531 1531 1532 1533 1533 1534 1534 1535 1535 1535 1535 1536 1537 1538 1540 1542 1543 1544 1545 1546 1546 1546 1546 1546 1547 1548 1549 1550 1551 1552 1553 1554 1554 1554 1555 1555 1556 1556 1557 1557 1557 1557 1557 1558 1557 1556 1555 1555 1554 1553 1553 1552 1551 1550 1549 1548 1546 1544 1542
1516 1517 1518 1518 1519 1520 1520 1521 1522 1523 1524 1525 1526 1527 1528 1528 1529 1530 1531 1531 1532 1532 1532 1532 1532 1532 1534 1535 1536 1538 1540 1541 1542 1543 1543 1543 1543 1544 1544 1545 1546 1548 1549 1550 1550 1551 1551 1552 1552 1553 1553 1554 1554 1555 1555 1556 1556 1556 1556 1556 1555 1554 1554 1554 1553 1552 1552 1551 1550 1549 1548 1546 1544 1542
1514 1515 1516 1517 1517 1518 1519 1520 1521 1521 1522 1523 1524 1525 1526 1526 1527 1528 1529 1529 1530 1530 1530 1530 1530 1531 1533 1534 1535 1537 1538 1539 1540 1540 1541 1541 1541 1541 1542 1543 1545 1546 1546 1548 1549 1549 1549 1550 1550 1551 1552 1552 1552 1553 1553 1554 1554 1554 1555 1555 1554 1554 1553 1553 1552 1552 1551 1550 1550 1548 1547 1545 1544 1542
1512 1513 1514 1515 1516 1517 1517 1518 1519 1520 1521 1521 1522 1523 1524 1524 1525 1526 1526 1527 1528 1528 1528 1528 1529 1531 1532 1533 1534 1535 1536 1536 1538 1539 1539 1540 1540 1540 1541 1542 1543 1544 1544 1546 1547 1546 1547 1548 1548 1549 1550 1550 1550 1551 1551 1552 1552 1552 1553 1553 1553 1553 1552 1552 1551 1551 1550 1550 1549 1548 1546 1544 1543 1542
1510 1511 1512 1513 1514 1515 1516 1516 1517 1518 1519 1519 1520 1521 1521 1522 1523 1523 1524 1525 1525 1526 1526 1527 1528 1529 1530 1531 1532 1533 1533 1534 1536 1537 1537 1538 1538 1539 1539 1540 1540 1541 1542 1543 1544 1544 1545 1546 1546 1547 1548 1548 1548 1549 1549 1550 1550 1550 1551 1552 1552 1551 1551 1550 1550 1550 1549 1549 1548 1547 1546 1544 1542 1541
1508 1509 1510 1511 1512 1513 1514 1514 1515 1516 1516 1517 1517 1518 1519 1520 1520 1521 1522 1522 1523 1524 1524 1525 1526 1527 1528 1529 1530 1531 1531 1532 1534 1534 1534 1535 1536 1536 1537 1537 1537 1538 1539 1540 1541 1542 1542 1543 1544 1545 1546 1546 1546 1547 1547 1548 1548 1549 1549 1550 1550 1550 1549 1549 1549 1549 1548 1548 1547 1546 1545 1543 1542 1540
1506 1507 1508 1509 1510 1511 1511 1512 1513 1514 1514 1514 1515 1516 1517 1517 1517 1518 1519 1520 1521 1522 1522 1523 1524 1525 1526 1527 1527 1528 1529 1530 1531 1531 1531 1533 1533 1534 1534 1535 1535 1536 1536 1537 1539 1539 1540 1541 1542 1543 1543 1543 1544 1544 1545 1545 1546 1547 1548 1548 1548 1548 1548 1547 1547 1547 1547 1546 1545 1544 1543 1542 1541 1540
1504 1504 1506 1506 1508 1508 1509 1510 1511 1512 1512 1512 1513 1514 1514 1514 1515 1515 1516 1517 1518 1520 1520 1521 1522 1522 1523 1524 1525 1526 1527 1528 1528 1528 1529 1530 1531 1531 1532 1533 1534 1534 1534 1535 1536 1537 1537 1538 1540 1540 1541 1541 1541 1542 1543 1543 1544 1545 1545 1546 1546 1546 1546 1546 1545 1545 1545 1544 1544 1543 1542 1541 1540 1538
1501 1502 1503 1504 1505 1506 1507 1508 1509 1510 1510 1510 1511 1511 1512 1512 1513 1514 1515 1515 1516 1517 1518 1519 1519 1520 1520 1521 1522 1524 1524 1525 1526 1526 1527 1528 1529 1530 1531 1531 1531 1531 1532 1533 1534 1535 1535 1536 1537 1538 1539 1539 1539 1540 1541 1542 1542 1543 1543 1544 1544 1544 1544 1544 1543 1543 1543 1543 1542 1541 1540 1539 1538 1537
1498 1499 1500 1501 1503 1504 1505 1506 1507 1507 1508 1508 1508 1509 1510 1511 1511 1512 1513 1513 1514 1515 1515 1516 1516 1517 1518 1519 1520 1521 1522 1523 1523 1524 1525 1526 1527 1527 1528 1529 1529 1529 1530 1531 1532 1533 1534 1534 1535 1536 1537 1537 1537 1538 1539 1540 1540 1541 1542 1542 1542 1542 1542 1542 1542 1541 1541 1541 1540 1539 1538 1537 1536 1535
1495 1496 1498 1499 1501 1502 1503 1504 1505 1505 1506 1506 1506 1507 1508 1509 1509 1510 1510 1511 1512 1512 1513 1513 1514 1514 1515 1516 1517 1518 1519 1520 1521 1523 1524 1524 1525 1525 1526 1526 1527 1527 1528 1529 1530 1531 1532 1532 1533 1534 1534 1535 1535 1536 1537 1538 1538 1539 1540 1540 1540 1540 1540 1540 1540 1539 1539 1538 1538 1537 1536 1536 1535 1533
1492 1494 1495 1497 1499 1500 1501 1502 1502 1503 1503 1504 1504 1505 1506 1507 1507 1508 1508 1509 1509 1510 1511 1511 1512 1512 1512 1513 1514 1516 1517 1518 1519 1520 1521 1522 1522 1523 1523 1523 1524 1525 1526 1527 1528 1528 1529 1530 1531 1532 1532 1533 1533 1534 1535 1536 1537 1537 1538 1538 1538 1538 1538 1538 1537 1537 1537 1536 1536 1535 1534 1534 1533 1532
1490 1492 1493 1495 1496 1497 1499 1500 1500 1501 1501 1502 1502 1503 1503 1504 1505 1505 1506 1506 1507 1508 1508 1509 1510 1510 1510 1511 1512 1514 1515 1516 1517 1518 1519 1520 1520 1520 1520 1521 1521 1522 1523 1524 1525 1526 1527 1528 1529 1530 1530 1531 1531 1532 1533 1534 1535 1535 1536 1536 1536 1536 1536 1535 1535 1535 1534 1534 1533 1533 1532 1531 1531 1529
1487 1490 1491 1493 1494 1495 1496 1497 1498 1498 1499 1499 1500 1500 1501 1501 1501 1502 1503 1504 1504 1505 1505 1506 1507 1508 1509 1509 1510 1512 1513 1513 1514 1515 1516 1517 1517 1517 1518 1518 1519 1520 1521 1522 1523 1524 1525 1526 1527 1528 1528 1529 1530 1531 1532 1532 1533 1533 1533 1533 1533 1533 1533 1533 1533 1532 1532 1532 1531 1531 1530 1529 1528 1527
1486 1488 1489 1490 1491 1492 1493 1494 1495 1496 1496 1497 1497 1498 1498 1498 1499 1499 1500 1500 1501 1502 1503 1504 1505 1506 1507 1507 1508 1509 1509 1510 1511 1512 1513 1514 1514 1515 1515 1516 1517 1518 1519 1520 1521 1522 1523 1524 1525 1525 1526 1527 1528 1529 1530 1530 1531 1531 1531 1531 1531 1531 1531 1530 1530 1530 1530 1529 1529 1528 1527 1527 1526 1525
1483 1485 1486 1487 1488 1490 1491 1492 1493 1494 1494 1494 1495 1495 1495 1496 1496 1497 1497 1498 1498 1499 1500 1502 1503 1504 1504 1505 1505 1505 1506 1507 1508 1509 1510 1511 1512 1513 1514 1514 1515 1516 1517 1518 1519 1520 1521 1522 1523 1523 1524 1525 1526 1527 1527 1528 1528 1528 1528 1528 1528 1528 1528 1528 1528 1527 1527 1527 1526 1525 1525 1524 1523 1522
1481 1482 1483 1484 1485 1486 1487 1489 1490 1490 1491 1492 1492 1493 1493 1493 1494 1494 1495 1495 1496 1497 1498 1499 1500 1501 1502 1502 1502 1503 1503 1504 1506 1507 1508 1509 1510 1511 1512 1512 1513 1514 1514 1515 1516 1517 1519 1520 1521 1521 1522 1523 1524 1524 1525 1525 1525 1525 1526 1526 1526 1526 1526 1525 1525 1525 1525 1524 1523 1523 1522 1521 1520 1520
1477 1479 1480 1480 1481 1482 1484 1485 1486 1487 1488 1489 1489 1490 1490 1491 1491 1491 1492 1492 1493 1494 1495 1496 1497 1498 1499 1500 1500 1500 1501 1502 1503 1504 1505 1507 1508 1509 1510 1510 1511 1512 1513 1513 1514 1515 1517 1518 1519 1519 1520 1520 1521 1521 1522 1522 1522 1522 1523 1523 1524 1523 1523 1523 1523 1522 1522 1521 1521 1520 1519 1519 1518 1517
1473 1475 1475 1476 1477 1478 1480 1481 1482 1484 1485 1486 1486 1487 1487 1488 1488 1488 1489 1489 1490 1491 1492 1493 1495 1496 1497 1497 1498 1498 1499 1500 1501 1502 1503 1504 1506 1506 1507 1508 1509 1510 1511 1511 1512 1513 1515 1516 1517 1517 1517 1517 1517 1518 1518 1519 1519 1520 1521 1521 1521 1521 1520 1521 1520 1520 1519 1519 1518 1517 1517 1516 1516 1515
1468 1470 1471 1472 1473 1474 1476 1478 1479 1481 1482 1483 1483 1484 1484 1484 1484 1485 1485 1486 1487 1488 1489 1491 1492 1493 1494 1495 1495 1496 1497 1498 1499 1500 1501 1502 1503 1504 1505 1506 1507 1508 1509 1509 1510 1511 1513 1514 1514 1514 1514 1515 1515 1515 1515 1516 1517 1517 1518 1518 1518 1518 1518 1518 1518 1517 1517 1516 1516 1515 1514 1514 1514 1512
1463 1465 1466 1468 1469 1471 1472 1474 1477 1478 1479 1480 1480 1480 1480 1480 1481 1481 1482 1483 1484 1485 1486 1487 1489 1490 1491 1492 1493 1494 1495 1496 1497 1498 1499 1499 1500 1501 1502 1503 1504 1505 1507 1508 1509 1510 1511 1511 1512 1512 1512 1513 1513 1512 1512 1513 1514 1515 1515 1516 1515 1515 1515 1515 1515 1514 1514 1513 1513 1512 1512 1511 1511 1510
1458 1460 1462 1464 1465 1467 1469 1471 1473 1475 1476 1476 1477 1477 1477 1477 1478 1478 1480 1481 1481 1482 1483 1484 1485 1487 1488 1489 1490 1491 1492 1493 1495 1496 1496 1497 1498 1499 1499 1501 1502 1503 1504 1506 1507 1508 1509 1509 1509 1510 1510 1510 1510 1510 1510 1511 1512 1512 1512 1513 1513 1513 1513 1513 1512 1512 1511 1511 1510 1510 1509 1508 1508 1507
1453 1455 1457 1459 1461 1463 1466 1468 1469 1471 1472 1473 1474 1473 1473 1474 1475 1476 1477 1477 1478 1478 1480 1481 1482 1483 1485 1486 1487 1488 1489 1491 1492 1493 1494 1495 1496 1496 1497 1498 1500 1501 1502 1503 1505 1506 1506 1506 1507 1507 1507 1507 1507 1507 1507 1508 1509 1509 1510 1510 1510 1510 1510 1510 1509 1509 1509 1508 1508 1507 1506 1505 1505 1503
1448 1450 1453 1455 1458 1460 1462 1464 1466 1467 1468 1470 1470 1470 1470 1471 1473 1474 1474 1474 1475 1476 1477 1478 1479 1480 1481 1482 1484 1485 1486 1488 1489 1490 1491 1492 1493 1494 1495 1496 1497 1499 1500 1501 1502 1503 1503 1504 1504 1505 1505 1504 1504 1504 1505 1505 1506 1507 1507 1508 1507 1507 1508 1507 1507 1506 1506 1506 1505 1504 1503 1502 1501 1500
1445 1447 1449 1452 1455 1457 1459 1461 1462 1464 1465 1466 1467 1467 1468 1469 1470 1471 1472 1473 1474 1474 1475 1475 1476 1477 1478 1479 1480 1482 1483 1484 1486 1487 1488 1490 1490 1491 1492 1493 1494 1496 1496 1498 1499 1500 1500 1501 1501 1502 1502 1502 1502 1502 1503 1503 1503 1504 1504 1505 1505 1505 1505 1504 1504 1504 1503 1503 1502 1501 1500 1499 1498 1497
1441 1444 1446 1449 1451 1453 1455 1457 1459 1460 1462 1463 1464 1464 1465 1466 1467 1469 1470 1471 1472 1473 1473 1473 1474 1475 1475 1476 1477 1478 1480 1481 1483 1484 1485 1486 1487 1488 1489 1490 1491 1492 1493 1494 1495 1496 1497 1498 1499 1500 1500 1500 1500 1500 1500 1499 1500 1500 1501 1502 1502 1502 1502 1502 1501 1501 1501 1500 1499 1498 1497 1496 1494 1493
1436 1440 1443 1445 1447 1449 1450 1452 1454 1456 1458 1459 1460 1461 1462 1463 1465 1467 1468 1469 1470 1471 1471 1472 1472 1473 1474 1474 1475 1476 1477 1478 1479 1481 1482 1483 1484 1485 1486 1487 1488 1489 1490 1491 1492 1493 1494 1495 1496 1497 1497 1497 1497 1497 1496 1496 1496 1497 1498 1498 1499 1499 1499 1499 1498 1498 1497 1497 1496 1495 1494 1492 1490 1489
1432 1435 1438 1440 1442 1444 1446 1448 1450 1452 1454 1456 1457 1458 1459 1461 1463 1464 1465 1466 1467 1468 1469 1470 1471 1471 1472 1472 1473 1473 1474 1476 1477 1478 1479 1480 1481 1482 1483 1484 1485 1486 1487 1488 1488 1490 1491 1491 1492 1493 1493 1493 1493 1493 1493 1493 1493 1494 1495 1495 1496 1496 1496 1495 1495 1495 1494 1493 1492 1492 1491 1489 1487 1486
1427 1430 1433 1435 1438 1441 1443 1445 1447 1449 1451 1452 1453 1455 1456 1458 1460 1461 1462 1463 1465 1466 1467 1468 1468 1469 1470 1470 1471 1471 1472 1473 1474 1475 1476 1477 1478 1479 1480 1481 1482 1482 1483 1483 1484 1485 1486 1487 1487 1488 1489 1489 1490 1490 1490 1490 1491 1491 1492 1492 1492 1492 1492 1492 1492 1491 1490 1490 1489 1488 1487 1486 1485 1483
1422 1424 1427 1430 1434 1437 1440 1442 1444 1446 1447 1449 1450 1452 1453 1455 1457 1459 1460 1461 1462 1464 1465 1465 1466 1467 1468 1468 1469 1469 1470 1471 1472 1472 1473 1474 1475 1476 1476 1477 1478 1478 1479 1480 1480 1480 1482 1483 1483 1484 1485 1486 1486 1486 1487 1488 1488 1488 1489 1489 1489 1489 1490 1489 1488 1488 1487 1486 1486 1485 1483 1482 1481 1480